« Back
NWS Peachtree City, Ga » Text Product » GA Regional Weather Roundup


Printer-friendly Version
Current Version              Previous Versions:   1  2  3  4  5  6  7  8  9  

Regional Weather Roundup

939
ASUS42 KFFC 280703
RWRGA
WEATHER ROUNDUP FOR GEORGIA
NATIONAL WEATHER SERVICE PEACHTREE CITY GA
300 AM EDT THU AUG 28 2014

NOTE: "FAIR" INDICATES FEW OR NO CLOUDS BELOW 12,000 FEET WITH NO
SIGNIFICANT WEATHER AND/OR OBSTRUCTIONS TO VISIBILITY.

* = USE WITH CAUTION. THE STATIONS MARKED WITH AN ASTERISK MAY NOT
REPORT WEATHER SUCH AS PRECIPITATION, FOG, OR THUNDER AND ARE NOT
QUALITY CONTROLLED BY NWS.

THE REMARK "TC" DENOTES TEMPERATURE READING IN DEGREES CELSIUS.

GAZ001>058-280800-
NORTH GEORGIA

CITY           SKY/WX    TMP DP  RH WIND       PRES   REMARKS
ATLANTA        PTCLDY    71  63  75 CALM      30.04F
ATHENS         CLEAR     65  60  84 CALM      30.03F
CHAMBLEE       CLEAR     66  62  87 CALM      30.04F
PEACHTREE CITY CLEAR     63  61  93 CALM      30.05F
ROME           CLEAR     63  62  97 CALM      30.03F
WEST ATLANTA   CLEAR     66  63  90 CALM      30.03F
GAINESVILLE    CLEAR     70  64  81 N3        30.07F
CARTERSVILLE   CLEAR     62  61  96 CALM      30.04F


CITY           SKY/WX    TMP DP  RH WIND       PRES   REMARKS
DALTON*        CLEAR     64  64 100 CALM      30.04F
MARIETTA       CLEAR     67  64  90 CALM      30.04F
$$

GAZ059>098-102>109-280800-
CENTRAL GEORGIA

CITY           SKY/WX    TMP DP  RH WIND       PRES   REMARKS
AUGUSTA-BUSH   CLEAR     60  58  92 S3        30.00F
AUGUSTA-DANIEL CLEAR     73  57  57 CALM      30.01F
COLUMBUS       CLEAR     72  62  71 CALM      30.01F
MACON          CLEAR     63  62  97 CALM      30.01F
ROBINS AFB     CLEAR     65  64  94 CALM      30.01F


CITY           SKY/WX    TMP DP  RH WIND       PRES   REMARKS
LAGRANGE*      CLEAR     65  65  98 CALM      30.04S FOG
SYLVANIA*      CLEAR     65  64  98 CALM      30.02F
MILLEDGEVILLE* CLEAR     66  66 100 CALM      30.01F
$$

GAZ099>101-110>166-280800-
SOUTH GEORGIA

CITY           SKY/WX    TMP DP  RH WIND       PRES   REMARKS
SAVANNAH       CLEAR     69  65  86 W3        30.01S
VALDOSTA       CLEAR     66  63  90 CALM      30.02S
ALMA           CLEAR     64  62  93 CALM      30.01F FOG
ST SIMONS      CLEAR     72  67  84 CALM      30.01S
FT STEWART     CLEAR     66  62  89 CALM      30.00F
ALBANY         CLEAR     66  62  87 CALM      30.02F
HUNTER AFB     CLEAR     67  66  96 W5        29.99S
MOODY AFB      CLEAR     68  64  87 SE3       30.01F
BRUNSWICK        N/A     68  64  88 CALM      30.02S


CITY           SKY/WX    TMP DP  RH WIND       PRES   REMARKS
BAINBRIDGE*    CLEAR     70  66  88 SE5       30.00S
MOULTRIE*      CLEAR     66  64  94 CALM      30.02S
VIDALIA*         N/A     68  64  88 CALM      30.02S
WAYCROSS*      CLEAR     68  67  96 CALM      30.02S
DOUGLAS*       CLEAR     68  64  88 CALM      30.03F
$$



USA.gov is the U.S. government's official web portal to all federal, state and local government web resources and services.